GJ25W NWWB-NWWW

Flight info

Callsign GJ25W
Flight time 0h 22m
Altitude 4000
Route 2137S16528E DCT 2142S16541E 2149S16552E DCT 2157S16609E
Aircraft BE58/L-SDFGRY/C

Departure

Time 2026-05-09 22:12
Airport Bourail - Poé Airport (NWWB)

Arrival

Time 2026-05-09 22:34
Airport La Tontouta International Airport (NWWW)
Time Latitude Longitude Altitude Speed Heading
2026-05-09 22:07 -21.60967 165.40139 7 ft 0 kts 117°
2026-05-09 22:09 -21.60994 165.40140 6 ft 11 kts 194°
2026-05-09 22:09 -21.61068 165.40088 5 ft 15 kts 275°
2026-05-09 22:09 -21.61028 165.39934 5 ft 27 kts 289°
2026-05-09 22:10 -21.60959 165.39707 8 ft 36 kts 287°
2026-05-09 22:10 -21.60890 165.39477 11 ft 22 kts 291°
2026-05-09 22:10 -21.60871 165.39418 10 ft 8 kts 112°
2026-05-09 22:10 -21.60879 165.39442 10 ft 0 kts 107°
2026-05-09 22:11 -21.60887 165.39470 11 ft 13 kts 108°
2026-05-09 22:11 -21.61003 165.39879 14 ft 100 kts 109°
2026-05-09 22:11 -21.61178 165.40712 353 ft 127 kts 99°
2026-05-09 22:12 -21.61246 165.41733 705 ft 146 kts 97°
2026-05-09 22:12 -21.61322 165.42894 947 ft 164 kts 100°
2026-05-09 22:12 -21.61509 165.44134 1052 ft 176 kts 104°
2026-05-09 22:12 -21.61693 165.45431 1320 ft 174 kts 102°
2026-05-09 22:13 -21.61856 165.46719 1591 ft 174 kts 102°
2026-05-09 22:13 -21.62019 165.48014 1850 ft 175 kts 104°
2026-05-09 22:13 -21.62425 165.49222 2104 ft 172 kts 120°
2026-05-09 22:13 -21.62932 165.50386 2357 ft 172 kts 117°
2026-05-09 22:14 -21.63386 165.51578 2606 ft 172 kts 116°
2026-05-09 22:14 -21.63823 165.52772 2854 ft 171 kts 116°
2026-05-09 22:14 -21.64252 165.53949 3103 ft 169 kts 116°
2026-05-09 22:14 -21.64681 165.55123 3356 ft 168 kts 117°
2026-05-09 22:15 -21.65101 165.56276 3596 ft 169 kts 116°
2026-05-09 22:15 -21.65529 165.57450 3847 ft 169 kts 116°
2026-05-09 22:15 -21.65959 165.58626 4098 ft 170 kts 116°
2026-05-09 22:15 -21.66396 165.59805 4344 ft 169 kts 116°
2026-05-09 22:16 -21.66823 165.60979 4586 ft 168 kts 115°
2026-05-09 22:16 -21.67249 165.62151 4835 ft 168 kts 115°
2026-05-09 22:16 -21.67677 165.63325 5084 ft 169 kts 115°
2026-05-09 22:16 -21.68105 165.64500 5330 ft 169 kts 116°
2026-05-09 22:17 -21.68537 165.65675 5575 ft 169 kts 115°
2026-05-09 22:17 -21.68957 165.66837 5819 ft 169 kts 115°
2026-05-09 22:17 -21.69452 165.67974 6019 ft 170 kts 128°
2026-05-09 22:17 -21.70177 165.69025 6025 ft 180 kts 130°
2026-05-09 22:18 -21.70925 165.70132 6033 ft 186 kts 129°
2026-05-09 22:18 -21.71685 165.71274 6033 ft 189 kts 129°
2026-05-09 22:18 -21.72454 165.72426 6035 ft 191 kts 129°
2026-05-09 22:18 -21.73233 165.73589 6034 ft 192 kts 129°
2026-05-09 22:19 -21.74014 165.74757 6033 ft 193 kts 129°
2026-05-09 22:19 -21.74797 165.75930 6032 ft 193 kts 129°
2026-05-09 22:19 -21.75572 165.77088 6030 ft 194 kts 129°
2026-05-09 22:19 -21.76374 165.78285 5884 ft 199 kts 129°
2026-05-09 22:20 -21.77162 165.79469 5731 ft 191 kts 129°
2026-05-09 22:20 -21.77927 165.80614 5576 ft 186 kts 129°
2026-05-09 22:20 -21.78673 165.81730 5422 ft 182 kts 129°
2026-05-09 22:20 -21.79404 165.82827 5270 ft 180 kts 129°
2026-05-09 22:21 -21.80132 165.83915 5113 ft 178 kts 130°
2026-05-09 22:21 -21.80850 165.84990 4994 ft 175 kts 129°
2026-05-09 22:21 -21.81540 165.86028 4989 ft 167 kts 130°
2026-05-09 22:21 -21.82115 165.87077 4982 ft 164 kts 121°
2026-05-09 22:22 -21.82636 165.88159 4979 ft 161 kts 122°
2026-05-09 22:22 -21.83157 165.89221 4981 ft 159 kts 122°
2026-05-09 22:22 -21.83673 165.90273 4980 ft 159 kts 122°
2026-05-09 22:22 -21.84183 165.91320 4979 ft 157 kts 122°
2026-05-09 22:23 -21.84690 165.92354 4982 ft 155 kts 122°
2026-05-09 22:23 -21.85194 165.93385 4979 ft 156 kts 122°
2026-05-09 22:23 -21.85696 165.94412 4981 ft 154 kts 122°
2026-05-09 22:23 -21.86193 165.95431 4980 ft 155 kts 122°
2026-05-09 22:24 -21.86688 165.96442 4979 ft 154 kts 122°
2026-05-09 22:24 -21.87185 165.97466 4982 ft 154 kts 122°
2026-05-09 22:24 -21.87681 165.98482 4984 ft 153 kts 122°
2026-05-09 22:24 -21.87727 165.98577 4984 ft 153 kts 122°
2026-05-09 22:27 -21.88082 165.99307 4985 ft 154 kts 122°
2026-05-09 22:28 -21.88618 166.00316 4913 ft 157 kts 127°
2026-05-09 22:28 -21.89230 166.01285 4764 ft 162 kts 128°
2026-05-09 22:28 -21.89856 166.02283 4716 ft 160 kts 128°
2026-05-09 22:28 -21.90495 166.03293 4553 ft 166 kts 129°
2026-05-09 22:29 -21.91151 166.04310 4414 ft 168 kts 129°
2026-05-09 22:29 -21.91854 166.05348 4185 ft 173 kts 130°
2026-05-09 22:29 -21.92556 166.06413 3965 ft 175 kts 129°
2026-05-09 22:29 -21.93251 166.07476 3742 ft 168 kts 129°
2026-05-09 22:30 -21.93909 166.08470 3507 ft 162 kts 131°
2026-05-09 22:30 -21.94592 166.09442 3068 ft 168 kts 131°
2026-05-09 22:30 -21.95232 166.10493 2713 ft 169 kts 126°
2026-05-09 22:30 -21.95858 166.11578 2291 ft 171 kts 128°
2026-05-09 22:31 -21.96694 166.12411 2151 ft 158 kts 147°
2026-05-09 22:31 -21.97451 166.13127 2100 ft 134 kts 125°
2026-05-09 22:31 -21.97821 166.14035 1742 ft 134 kts 111°
2026-05-09 22:31 -21.98113 166.14956 1358 ft 118 kts 111°
2026-05-09 22:32 -21.98416 166.15709 1007 ft 101 kts 114°
2026-05-09 22:32 -21.98748 166.16377 794 ft 103 kts 122°
2026-05-09 22:32 -21.99099 166.17025 637 ft 99 kts 117°
2026-05-09 22:32 -21.99414 166.17677 505 ft 99 kts 118°
2026-05-09 22:33 -21.99769 166.18321 397 ft 100 kts 121°
2026-05-09 22:33 -22.00137 166.18952 283 ft 99 kts 119°
2026-05-09 22:33 -22.00484 166.19579 137 ft 96 kts 119°
2026-05-09 22:33 -22.00817 166.20172 24 ft 87 kts 121°
2026-05-09 22:34 -22.01096 166.20676 18 ft 71 kts 120°
2026-05-09 22:34 -22.01333 166.21091 17 ft 57 kts 122°
2026-05-09 22:34 -22.01516 166.21425 17 ft 48 kts 118°
2026-05-09 22:34 -22.01620 166.21640 23 ft 13 kts 66°
2026-05-09 22:35 -22.01540 166.21690 21 ft 15 kts 78°
2026-05-09 22:35 -22.01594 166.21808 21 ft 19 kts 110°
2026-05-09 22:35 -22.01541 166.21874 21 ft 14 kts 330°
2026-05-09 22:35 -22.01492 166.21792 20 ft 7 kts 324°
2026-05-09 22:36 -22.01481 166.21793 21 ft 0 kts 30°